TimeCST,TemperatureF,Dew PointF,Humidity,Sea Level PressureIn,VisibilityMPH,Wind Direction,Wind SpeedMPH,Gust SpeedMPH,PrecipitationIn,Events,Conditions,WindDirDegrees,DateUTC
12:53 AM,41.0,30.9,67,30.14,10.0,WSW,10.4,-,N/A,,Clear,240,2013-02-03 06:53:00
1:53 AM,45.0,30.0,56,30.12,10.0,WSW,10.4,-,N/A,,Clear,250,2013-02-03 07:53:00
2:53 AM,46.0,30.9,56,30.09,10.0,WSW,13.8,-,N/A,,Clear,240,2013-02-03 08:53:00
3:53 AM,46.0,30.9,56,30.12,10.0,West,13.8,-,N/A,,Clear,280,2013-02-03 09:53:00
4:53 AM,42.1,30.9,65,30.14,10.0,West,8.1,-,N/A,,Clear,270,2013-02-03 10:53:00
5:53 AM,42.8,30.2,61,30.14,10.0,West,8.1,-,N/A,,Clear,270,2013-02-03 11:53:00
6:53 AM,42.1,30.0,62,30.16,10.0,West,6.9,-,N/A,,Clear,260,2013-02-03 12:53:00
7:53 AM,45.0,28.9,53,30.18,10.0,NW,10.4,-,N/A,,Clear,310,2013-02-03 13:53:00
8:53 AM,46.9,30.0,52,30.19,10.0,WNW,13.8,20.7,N/A,,Clear,290,2013-02-03 14:53:00
9:53 AM,48.0,30.9,52,30.19,10.0,West,17.3,23.0,N/A,,Clear,280,2013-02-03 15:53:00
10:53 AM,50.0,28.9,44,30.20,10.0,WNW,16.1,27.6,N/A,,Clear,290,2013-02-03 16:53:00
11:53 AM,50.0,27.0,41,30.19,10.0,NW,16.1,26.5,N/A,,Clear,310,2013-02-03 17:53:00
12:53 PM,53.1,26.1,35,30.18,10.0,NW,11.5,19.6,N/A,,Clear,320,2013-02-03 18:53:00
1:53 PM,53.1,21.9,30,30.17,10.0,NW,18.4,26.5,N/A,,Clear,320,2013-02-03 19:53:00
2:53 PM,54.0,21.9,29,30.17,10.0,NW,10.4,19.6,N/A,,Clear,320,2013-02-03 20:53:00
3:53 PM,54.0,24.1,31,30.17,10.0,North,6.9,-,N/A,,Clear,360,2013-02-03 21:53:00
4:53 PM,52.0,21.9,31,30.16,10.0,Calm,Calm,-,N/A,,Clear,0,2013-02-03 22:53:00
5:53 PM,44.1,21.9,42,30.15,10.0,NE,3.5,-,N/A,,Clear,50,2013-02-03 23:53:00
6:53 PM,39.0,26.1,60,30.16,10.0,Calm,Calm,-,N/A,,Clear,0,2013-02-04 00:53:00
7:53 PM,37.9,24.1,57,30.15,10.0,ESE,3.5,-,N/A,,Clear,110,2013-02-04 01:53:00
8:53 PM,37.9,26.1,62,30.15,10.0,ESE,3.5,-,N/A,,Clear,110,2013-02-04 02:53:00
9:53 PM,39.9,26.1,58,30.14,10.0,Calm,Calm,-,N/A,,Clear,0,2013-02-04 03:53:00
10:53 PM,39.9,27.0,60,30.12,10.0,SE,3.5,-,N/A,,Clear,140,2013-02-04 04:53:00
11:53 PM,37.9,28.9,70,30.10,10.0,Calm,Calm,-,N/A,,Clear,0,2013-02-04 05:53:00